User: anonymous
Location: Sherrills_Ford_Terrell
(35.6000°N, 80.9830°W)
Time: 17:23:51
(UTC-04:00)
Language:

CZ-4B R/B - Orbit

View from above orbital plane
View from above orbital plane
View from above satellite
View from above satellite

Ground track
Ground track

The orbit data is extracted from the following two-line orbital elements,

1 29093U 06015B   14113.51156766  .00013740  00000-0  51027-3 0  2796
2 29093 097.5238 192.8157 0094374 092.8427 004.7826 15.23502800441250
Epoch (UTC): 23 April 2014 12:16:39
Eccentricity: 0.0094374
inclination: 97.5238°
perigee height: 430 km
apogee height: 560 km
right ascension of ascending node: 192.8157°
argument of perigee: 92.8427°
revolutions per day: 15.23502800
mean anomaly at epoch: 4.7826°
orbit number at epoch: 44125

The dashed part of the orbit path shows where the satellite is in the earth's shadow,  

DLR